Location: Wagman Observatory
(40.6260°N, 79.8130°W)
Time: 06:10:41
(UTC-04:00)

Daily predictions for brighter satellites

Satellite Brightness Start Highest point End
(mag) Time Altitude Azimuth Time Altitude Azimuth Time Altitude Azimuth
Cosmos 2056 Rocket 3.9 21:01:51 10° SSW 21:06:58 68° WNW 21:12:05 10° NNE
Atlas Centaur 2 3.2 21:07:29 10° SW 21:09:29 14° SSW 21:11:26 10° SSE
Cosmos 1356 Rocket 4.2 21:05:43 10° SSW 21:09:54 58° WNW 21:14:10 10° N
COS B Rocket 4.3 21:07:52 10° NNE 21:11:08 25° E 21:14:06 10° SE
Meteor 2-6 Rocket 4.3 21:06:06 10° N 21:12:03 74° E 21:17:50 10° SSE
CZ-4 DEB 2.7 21:11:09 10° SSE 21:14:17 70° ENE 21:17:27 10° N
Meteor 2-10 Rocket 4.2 21:08:57 10° NNW 21:14:41 65° W 21:20:13 10° S
Cosmos 1833 Rocket 4.5 21:11:13 10° N 21:14:52 17° NE 21:18:29 10° E
Cosmos 1844 Rocket 3.0 21:13:01 10° SSW 21:18:41 76° WNW 21:24:21 10° NNE
COSMOS 2406 4.1 21:13:50 10° NW 21:19:21 49° WSW 21:24:48 10° S
Cosmos 1825 2.8 21:16:05 10° SSE 21:19:34 35° E 21:23:05 10° NNE
Cosmos 1939 Rocket 3.3 21:16:30 10° SE 21:20:11 42° ENE 21:23:55 10° N
Cosmos 2278 Rocket 2.3 21:15:22 10° S 21:20:52 54° ESE 21:26:24 10° NNE
GPS 2-05 Rocket1 3.7 21:17:25 10° WSW 21:20:52 36° S 21:24:06 11° ESE
FENGYUN 3A 4.4 21:17:25 10° S 21:22:41 55° W 21:27:58 10° NNW
Cosmos 1674 Rocket 3.7 21:19:00 10° N 21:23:28 82° W 21:27:52 10° S
SL-27 R/B 3.7 21:20:20 10° NNW 21:23:47 41° WSW 21:27:09 10° S
Cosmos 1844 3.8 21:21:13 10° SSW 21:26:59 88° WNW 21:32:50 10° NNE
ALOS 3.6 21:23:25 10° SSW 21:27:49 41° W 21:32:14 10° NNW
Okean 2 Rocket 3.8 21:28:23 10° SSE 21:32:23 35° E 21:36:23 10° NNE
SJ-11-01 4.3 21:30:00 10° SSE 21:34:45 89° WSW 21:39:32 10° NNW
Envisat 3.1 21:32:15 10° SSE 21:37:14 63° ENE 21:42:17 10° N
SEDSat Delta rocket 4.5 21:34:24 10° SSW 21:37:25 18° SSE 21:39:01 15° SE
USA 186 4.0 21:35:17 10° SSW 21:37:59 25° W 21:40:48 10° NW
PSLV R/B 4.5 21:38:39 17° ESE 21:39:58 23° ENE 21:42:23 10° NNE
Cosmos 1782 Rocket 3.8 21:35:49 10° S 21:40:08 53° E 21:44:30 10° NNE
Cosmos 2082 Rocket 3.2 21:35:53 10° N 21:40:59 32° ENE 21:44:56 15° ESE
CZ-4 SHROUD 4.5 21:41:47 18° ESE 21:43:10 25° ENE 21:45:46 10° NNE
Nadezhda 3 Rocket 4.0 21:38:03 10° N 21:44:27 83° E 21:50:49 10° S
OAO 3 Rocket 4.1 21:40:37 10° SW 21:44:59 31° SSE 21:48:02 17° ESE
Intercosmos 25 3.9 21:43:01 17° SE 21:45:03 29° E 21:47:50 10° NNE
Sich 1 Rocket 4.2 21:41:10 10° SSW 21:45:42 60° W 21:50:15 10° N
Cosmos 2084 4.2 21:43:31 10° SW 21:47:16 49° NW 21:51:00 10° NNE
ERS-1 Rocket 3.3 21:44:07 10° S 21:49:07 68° WSW 21:54:09 10° NNW
Cosmos 1420 Rocket 4.0 21:44:10 10° S 21:49:20 64° ESE 21:54:31 10° NNE
APEX 3.6 21:46:10 10° S 21:49:55 54° ESE 21:54:51 10° NNE
COSMOS 2487 2.5 21:48:21 10° NNW 21:51:59 81° WSW 21:54:41 17° SSE
DNEPR-1 R/B 3.9 21:47:07 10° NNW 21:52:29 67° NE 21:55:33 21° SE
Cosmos 1975 Rocket 3.0 21:50:53 10° N 21:55:13 68° E 21:58:29 17° SSE
Cosmos 1140 Rocket 3.4 21:51:06 10° NNW 21:56:15 76° ENE 22:00:06 18° SSE
Cosmos 2297 3.8 21:52:48 10° S 21:58:20 56° ESE 22:03:57 10° NNE
EO 1 Delta rocket 4.2 21:56:49 10° N 22:02:46 83° WNW 22:07:39 10° SSW
Terra 3.7 22:01:13 13° E 22:03:01 16° ENE 22:05:50 10° NNE
Cosmos 1378 Rocket 4.1 22:00:16 10° NNW 22:04:30 58° W 22:08:45 10° S
ISS -1.4 22:03:41 10° W 22:06:39 31° NNW 22:09:36 10° NE
CZ-4B R/B 3.9 22:02:17 10° NNE 22:06:53 39° E 22:09:18 23° SSE
Cosmos 1606 4.2 22:04:09 10° NNW 22:07:47 37° W 22:11:24 10° SSW
MetOp-B 4.1 22:04:33 19° SSE 22:08:24 72° ENE 22:13:44 10° N
H-2A R/B 3.4 22:11:12 20° ESE 22:13:27 26° ENE 22:17:46 10° NNE
Cosmos 2341 Rocket 4.3 22:07:12 10° SSW 22:13:28 72° W 22:19:45 10° N
Cosmos 1238 Rocket 3.5 22:10:21 10° NNW 22:13:40 48° W 22:17:07 13° SSW
BREEZE-M DEB (TANK) 4.2 22:12:49 10° NW 22:14:10 15° N 22:15:47 10° NE
Cosmos 1184 Rocket 4.2 22:14:24 10° SSW 22:17:33 39° WNW 22:20:44 10° N
SPOT 5 3.2 22:14:02 17° S 22:18:09 77° WSW 22:23:32 10° NNW
SL-8 Rocket 3.9 22:13:59 10° S 22:20:10 77° E 22:26:24 10° N
Abrixas 2.9 22:22:33 10° SW 22:24:57 47° SSW 22:24:57 47° SSW
USA 245 3.1 22:25:48 45° SE 22:26:48 72° ENE 22:31:02 10° N
Cosmos 2369 Rocket 4.3 22:29:38 11° E 22:29:38 11° E 22:29:57 10° ENE
SPOT 1/Viking Rocket 3.5 22:26:12 29° SSE 22:28:54 76° ENE 22:34:08 10° N
Gbstr 26 Del rocket 4.5 22:24:11 10° NW 22:29:00 35° NNE 22:31:42 18° ENE
Cosmos 1242 Rocket 3.3 22:25:59 10° NNW 22:29:34 51° W 22:31:23 26° SSW
Lacrosse 5 3.0 22:31:52 25° E 22:31:52 25° E 22:34:43 10° ENE
ARGOS 3.1 22:27:48 30° SSE 22:30:26 69° ENE 22:35:46 10° N
Timation 2 Rocket 4.1 22:24:35 10° NNW 22:30:31 66° WSW 22:34:07 24° S
Elektron 3 4.5 22:27:40 10° NW 22:30:36 57° SW 22:31:54 36° S
H-2A R/B 3.5 22:29:41 12° SSW 22:33:09 33° W 22:36:58 10° NNW
YAOGAN 6 2.9 22:33:23 37° SSW 22:34:34 60° W 22:38:03 10° NNW
Cosmos 2151 Rocket 3.5 22:36:41 32° S 22:38:47 84° E 22:43:20 10° N
CZ-4C R/B 3.9 22:38:45 38° E 22:39:13 40° ENE 22:43:07 10° N
USA 229 DEB 3.7 22:39:42 10° NW 22:46:52 89° ENE 22:50:15 35° SSE
USA 229 3.7 22:39:48 10° NW 22:46:58 88° ENE 22:50:21 35° SE
Cosmos 1300 Rocket 4.0 22:49:12 43° E 22:49:14 43° E 22:53:27 10° NNE
Cosmos 864 Rocket 4.4 22:45:50 24° S 22:49:45 88° E 22:55:57 10° N
ASTEX 1 4.2 22:47:04 10° NNE 22:51:32 33° E 22:51:33 33° E
Meteor 1-20 Rocket 4.1 22:50:15 39° SSE 22:52:18 68° E 22:57:48 10° NNE
Timation 1 Rocket 4.2 22:48:54 17° SSW 22:53:38 79° ESE 22:59:39 10° NNE
Okean 1 Rocket 3.5 22:56:16 44° E 22:56:16 44° E 23:00:21 10° NNE
Cosmos 1833 Rocket 2.7 22:53:49 10° NNW 22:59:26 77° WSW 23:01:16 44° S
Cosmos 2366 rocket 4.2 22:57:17 20° SSW 23:01:49 71° W 23:08:11 10° N
Cosmos 1331 Rocket 3.8 23:05:38 44° SSW 23:07:19 86° ESE 23:12:30 10° NNE
CZ-4 R/B 4.1 23:04:56 10° N 23:09:33 65° WNW 23:11:24 35° SW
Meteor 1-25 Rocket 4.4 23:06:56 28° SSW 23:10:05 73° W 23:15:56 10° N
Okean 1-7 Rocket 3.7 23:08:50 10° N 23:13:10 59° ENE 23:13:10 59° ENE
Okean 1 3.3 23:10:42 10° N 23:14:37 82° N 23:14:37 82° N
Cosmos 1110 Rocket 4.2 23:13:24 30° SW 23:15:59 70° WNW 23:21:12 10° NNE
DMSP B5D2-2 3.9 23:14:36 10° NNE 23:19:51 78° ESE 23:20:37 64° SSE
Landsat 7 4.1 23:23:53 52° SW 23:24:34 58° W 23:29:16 10° NNW
Cosmos 2082 Rocket 3.2 23:19:54 10° NW 23:25:04 37° WSW 23:26:47 30° SW
ATLAS 2AS CENTAUR R/B 4.5 23:18:40 10° NNW 23:25:33 29° NE 23:30:49 15° E
Cosmos 1812 3.5 23:23:46 10° NNW 23:27:15 47° W 23:27:15 47° W
CARTOSAT-1 3.8 23:32:46 63° W 23:32:46 63° W 23:36:55 10° NNW
NOSS 3-1 (C) 4.1 23:26:42 10° NNW 23:34:18 75° NE 23:37:01 46° SE
Genesis I 4.4 23:37:08 39° NNE 23:37:08 39° NNE 23:39:46 10° NNE
Cosmos 1000 Rocket 4.4 23:30:20 10° N 23:36:37 82° E 23:37:44 62° SSE
Meteor 2-4 Rocket 4.1 23:31:48 10° N 23:37:04 47° ENE 23:37:12 47° E
Terra 2.1 23:40:06 57° WSW 23:40:16 58° W 23:44:59 10° NNW
Cosmos 2239 Rocket 4.4 23:40:41 64° SSE 23:41:40 78° E 23:47:59 10° N
BREEZE-M TANK 3.0 23:33:45 10° WNW 23:41:47 60° N 23:42:07 57° NE
USA 234 3.1 23:35:32 10° NE 23:42:04 70° SE 23:43:56 48° SSW
ISS 0.0 23:42:15 10° NW 23:43:51 13° N 23:45:28 10° NNE
Cosmos 1486 Rocket 4.0 23:39:08 10° NNW 23:44:27 71° WSW 23:44:40 70° SW
Cosmos 1354 Rocket 4.1 23:39:50 10° NNW 23:45:03 62° ENE 23:45:03 62° ENE
Meteor 1-13 Rocket 4.3 23:42:39 10° NNW 23:48:36 73° W 23:49:25 63° SSW
H-2A R/B 2.9 23:51:51 38° WSW 23:52:38 41° W 23:57:38 10° NNW
